IGO301 VABB-VOBL

Flight info

Callsign IGO301
Flight time 1h 16m
Altitude 32000
Route VABB/27 N0436F370 VEVA2A EPKOS Q9 RIKBU RIKB7F VOBL/27R
Aircraft A321/M-SDFGHIRWY/C

Departure

Time 2026-04-28 18:23
Airport Chhatrapati Shivaji Maharaj International Airport (VABB)

Arrival

Time 2026-04-28 19:39
Airport Kempegowda International Airport Bengaluru (VOBL)
Time Latitude Longitude Altitude Speed Heading
2026-04-28 18:20 19.09015 72.88051 41 ft 0 kts 179°
2026-04-28 18:21 19.09008 72.88051 41 ft 3 kts 179°
2026-04-28 18:21 19.08948 72.88052 40 ft 11 kts 179°
2026-04-28 18:21 19.08888 72.88013 40 ft 11 kts 253°
2026-04-28 18:22 19.08889 72.87927 41 ft 18 kts 270°
2026-04-28 18:22 19.08881 72.87447 39 ft 117 kts 269°
2026-04-28 18:22 19.08862 72.86240 32 ft 203 kts 270°
2026-04-28 18:22 19.08842 72.84598 528 ft 235 kts 269°
2026-04-28 18:23 19.08821 72.82756 1227 ft 265 kts 270°
2026-04-28 18:23 19.08790 72.80695 1930 ft 292 kts 269°
2026-04-28 18:23 19.08759 72.78619 2483 ft 283 kts 270°
2026-04-28 18:23 19.08722 72.76512 2972 ft 290 kts 270°
2026-04-28 18:24 19.08556 72.74364 3435 ft 296 kts 258°
2026-04-28 18:24 19.08055 72.73016 3742 ft 301 kts 240°
2026-04-28 18:24 19.05888 72.71164 4373 ft 311 kts 200°
2026-04-28 18:24 19.03720 72.70976 4851 ft 319 kts 171°
2026-04-28 18:25 19.01644 72.71836 5330 ft 324 kts 152°
2026-04-28 18:25 18.99697 72.73044 5806 ft 326 kts 149°
2026-04-28 18:25 18.97718 72.74231 6239 ft 327 kts 158°
2026-04-28 18:26 18.93274 72.74752 7164 ft 325 kts 182°
2026-04-28 18:26 18.91009 72.74686 7631 ft 325 kts 183°
2026-04-28 18:26 18.88746 72.74610 8113 ft 325 kts 183°
2026-04-28 18:26 18.86476 72.74538 8601 ft 326 kts 182°
2026-04-28 18:27 18.84211 72.74470 9081 ft 326 kts 182°
2026-04-28 18:27 18.81945 72.74406 9598 ft 325 kts 182°
2026-04-28 18:27 18.79677 72.74344 10052 ft 327 kts 182°
2026-04-28 18:27 18.77350 72.74515 10442 ft 346 kts 170°
2026-04-28 18:28 18.74964 72.75189 10826 ft 363 kts 163°
2026-04-28 18:28 18.72514 72.76036 11212 ft 376 kts 162°
2026-04-28 18:28 18.70008 72.76926 11604 ft 383 kts 162°
2026-04-28 18:28 18.67467 72.77825 11986 ft 387 kts 162°
2026-04-28 18:29 18.64935 72.78715 12375 ft 390 kts 162°
2026-04-28 18:29 18.62353 72.79616 12774 ft 391 kts 162°
2026-04-28 18:29 18.59755 72.80521 13178 ft 393 kts 162°
2026-04-28 18:29 18.57147 72.81429 13598 ft 396 kts 162°
2026-04-28 18:30 18.54523 72.82340 13955 ft 398 kts 162°
2026-04-28 18:30 18.53633 72.82649 14077 ft 399 kts 162°
2026-04-28 18:30 18.49218 72.84182 14685 ft 405 kts 162°
2026-04-28 18:30 18.46530 72.85114 15057 ft 408 kts 162°
2026-04-28 18:31 18.43816 72.86056 15441 ft 411 kts 162°
2026-04-28 18:31 18.41092 72.87000 15825 ft 414 kts 162°
2026-04-28 18:31 18.38347 72.87950 16208 ft 417 kts 162°
2026-04-28 18:31 18.35572 72.88911 16601 ft 420 kts 161°
2026-04-28 18:32 18.32788 72.89875 17002 ft 424 kts 161°
2026-04-28 18:32 18.29976 72.90847 17398 ft 426 kts 161°
2026-04-28 18:32 18.27149 72.91825 17810 ft 429 kts 161°
2026-04-28 18:32 18.24307 72.92807 18204 ft 430 kts 161°
2026-04-28 18:33 18.21458 72.93791 18559 ft 431 kts 161°
2026-04-28 18:33 18.18600 72.94777 18928 ft 432 kts 161°
2026-04-28 18:33 18.16712 72.95429 19170 ft 432 kts 162°
2026-04-28 18:33 18.12931 72.96737 19656 ft 432 kts 161°
2026-04-28 18:34 18.10130 72.97901 20034 ft 432 kts 155°
2026-04-28 18:34 18.07535 72.99489 20405 ft 433 kts 145°
2026-04-28 18:34 18.05190 73.01479 20791 ft 434 kts 139°
2026-04-28 18:34 18.02941 73.03611 21178 ft 437 kts 138°
2026-04-28 18:35 18.01450 73.05048 21434 ft 439 kts 138°
2026-04-28 18:35 17.99194 73.07223 21834 ft 442 kts 138°
2026-04-28 18:35 17.96922 73.09405 22243 ft 444 kts 138°
2026-04-28 18:35 17.94628 73.11603 22653 ft 447 kts 138°
2026-04-28 18:36 17.92314 73.13814 23068 ft 450 kts 139°
2026-04-28 18:36 17.89983 73.16040 23473 ft 454 kts 139°
2026-04-28 18:36 17.87637 73.18279 23820 ft 458 kts 139°
2026-04-28 18:36 17.85273 73.20532 24161 ft 461 kts 139°
2026-04-28 18:37 17.82876 73.22816 24526 ft 465 kts 139°
2026-04-28 18:37 17.80508 73.25072 24890 ft 469 kts 139°
2026-04-28 18:37 17.78078 73.27385 25259 ft 472 kts 140°
2026-04-28 18:37 17.75634 73.29710 25622 ft 476 kts 140°
2026-04-28 18:38 17.73177 73.32048 26000 ft 479 kts 140°
2026-04-28 18:38 17.70701 73.34403 26373 ft 481 kts 141°
2026-04-28 18:38 17.68213 73.36768 26756 ft 484 kts 141°
2026-04-28 18:38 17.65710 73.39145 27153 ft 486 kts 141°
2026-04-28 18:39 17.63202 73.41527 27548 ft 488 kts 141°
2026-04-28 18:39 17.60676 73.43925 27814 ft 493 kts 141°
2026-04-28 18:39 17.58116 73.46353 27854 ft 498 kts 141°
2026-04-28 18:39 17.55542 73.48796 27853 ft 500 kts 141°
2026-04-28 18:40 17.52965 73.51241 27867 ft 500 kts 141°
2026-04-28 18:40 17.50385 73.53688 27866 ft 500 kts 141°
2026-04-28 18:40 17.47799 73.56140 27866 ft 500 kts 141°
2026-04-28 18:40 17.45215 73.58588 27870 ft 500 kts 141°
2026-04-28 18:41 17.42665 73.61004 27872 ft 501 kts 141°
2026-04-28 18:41 17.40078 73.63452 27858 ft 501 kts 141°
2026-04-28 18:41 17.37489 73.65901 27884 ft 501 kts 141°
2026-04-28 18:41 17.34903 73.68349 27883 ft 501 kts 141°
2026-04-28 18:42 17.32314 73.70797 27882 ft 501 kts 141°
2026-04-28 18:42 17.29723 73.73244 27883 ft 501 kts 141°
2026-04-28 18:42 17.27130 73.75692 27882 ft 501 kts 141°
2026-04-28 18:42 17.24534 73.78142 27883 ft 501 kts 141°
2026-04-28 18:43 17.21948 73.80583 27887 ft 501 kts 141°
2026-04-28 18:43 17.19350 73.83034 27891 ft 502 kts 141°
2026-04-28 18:43 17.16788 73.85451 27884 ft 501 kts 141°
2026-04-28 18:43 17.14195 73.87896 27890 ft 501 kts 141°
2026-04-28 18:44 17.11606 73.90336 27890 ft 501 kts 141°
2026-04-28 18:44 17.06418 73.95220 27891 ft 501 kts 141°
2026-04-28 18:44 17.03827 73.97658 27892 ft 501 kts 141°
2026-04-28 18:45 17.01232 74.00099 27892 ft 501 kts 141°
2026-04-28 18:45 16.98642 74.02536 27894 ft 501 kts 141°
2026-04-28 18:45 16.96050 74.04972 27895 ft 501 kts 141°
2026-04-28 18:45 16.93456 74.07410 27895 ft 501 kts 141°
2026-04-28 18:46 16.90863 74.09846 27892 ft 501 kts 141°
2026-04-28 18:46 16.88362 74.12395 27891 ft 504 kts 135°
2026-04-28 18:46 16.86058 74.15159 27893 ft 505 kts 133°
2026-04-28 18:46 16.83846 74.18010 27894 ft 506 kts 131°
2026-04-28 18:47 16.81701 74.20872 27896 ft 506 kts 130°
2026-04-28 18:47 16.79545 74.23780 27890 ft 506 kts 130°
2026-04-28 18:47 16.77387 74.26688 27884 ft 506 kts 130°
2026-04-28 18:47 16.75228 74.29581 27888 ft 505 kts 130°
2026-04-28 18:48 16.73061 74.32465 27889 ft 505 kts 130°
2026-04-28 18:48 16.70892 74.35339 27895 ft 504 kts 131°
2026-04-28 18:48 16.68718 74.38209 27884 ft 504 kts 131°
2026-04-28 18:48 16.66537 74.41081 27884 ft 504 kts 131°
2026-04-28 18:49 16.64361 74.43945 27884 ft 504 kts 131°
2026-04-28 18:49 16.62912 74.45852 27883 ft 504 kts 131°
2026-04-28 18:49 16.60000 74.49681 27883 ft 504 kts 131°
2026-04-28 18:49 16.57819 74.52550 27870 ft 504 kts 131°
2026-04-28 18:50 16.55643 74.55410 27870 ft 504 kts 131°
2026-04-28 18:50 16.53490 74.58240 27870 ft 504 kts 131°
2026-04-28 18:50 16.51313 74.61100 27870 ft 504 kts 131°
2026-04-28 18:50 16.49134 74.63963 27870 ft 504 kts 131°
2026-04-28 18:51 16.46955 74.66824 27854 ft 504 kts 130°
2026-04-28 18:51 16.44775 74.69684 27859 ft 503 kts 130°
2026-04-28 18:51 16.42599 74.72539 27859 ft 502 kts 130°
2026-04-28 18:51 16.40427 74.75388 27859 ft 502 kts 130°
2026-04-28 18:52 16.38247 74.78245 27858 ft 502 kts 130°
2026-04-28 18:53 16.27759 74.91973 27848 ft 502 kts 131°
2026-04-28 18:54 16.26319 74.93856 27848 ft 502 kts 131°
2026-04-28 18:54 16.24147 74.96696 27848 ft 502 kts 131°
2026-04-28 18:54 16.21973 74.99537 27850 ft 502 kts 131°
2026-04-28 18:54 16.19122 75.03262 27851 ft 502 kts 131°
2026-04-28 18:55 16.16943 75.06107 27857 ft 502 kts 131°
2026-04-28 18:55 16.15503 75.07987 27852 ft 502 kts 131°
2026-04-28 18:55 16.12597 75.11778 27845 ft 501 kts 131°
2026-04-28 18:56 16.04466 75.22374 27847 ft 500 kts 131°
2026-04-28 18:56 16.02296 75.25199 27849 ft 500 kts 131°
2026-04-28 18:57 16.00125 75.28024 27847 ft 500 kts 131°
2026-04-28 18:57 15.97951 75.30852 27849 ft 500 kts 131°
2026-04-28 18:57 15.95779 75.33677 27853 ft 500 kts 131°
2026-04-28 18:57 15.93606 75.36501 27849 ft 500 kts 131°
2026-04-28 18:58 15.91425 75.39335 27850 ft 500 kts 131°
2026-04-28 18:58 15.89278 75.42124 27851 ft 500 kts 131°
2026-04-28 18:58 15.87104 75.44947 27852 ft 500 kts 131°
2026-04-28 18:58 15.84928 75.47771 27851 ft 501 kts 131°
2026-04-28 18:59 15.82749 75.50598 27853 ft 501 kts 131°
2026-04-28 18:59 15.80575 75.53418 27854 ft 501 kts 131°
2026-04-28 18:59 15.78397 75.56241 27853 ft 501 kts 131°
2026-04-28 18:59 15.76217 75.59067 27853 ft 501 kts 131°
2026-04-28 19:00 15.74041 75.61885 27854 ft 501 kts 131°
2026-04-28 19:00 15.71862 75.64707 27861 ft 501 kts 131°
2026-04-28 19:00 15.69682 75.67528 27862 ft 501 kts 131°
2026-04-28 19:00 15.67501 75.70351 27862 ft 501 kts 131°
2026-04-28 19:01 15.65316 75.73176 27860 ft 501 kts 131°
2026-04-28 19:01 15.63132 75.76001 27856 ft 501 kts 131°
2026-04-28 19:01 15.60952 75.78818 27866 ft 501 kts 131°
2026-04-28 19:01 15.58772 75.81635 27862 ft 501 kts 131°
2026-04-28 19:02 15.56620 75.84413 27863 ft 501 kts 131°
2026-04-28 19:02 15.54440 75.87229 27866 ft 501 kts 131°
2026-04-28 19:02 15.52258 75.90044 27858 ft 501 kts 131°
2026-04-28 19:02 15.50072 75.92863 27864 ft 501 kts 131°
2026-04-28 19:03 15.47889 75.95678 27868 ft 501 kts 131°
2026-04-28 19:03 15.45704 75.98495 27862 ft 501 kts 131°
2026-04-28 19:03 15.43517 76.01313 27862 ft 501 kts 131°
2026-04-28 19:03 15.41327 76.04135 27862 ft 501 kts 131°
2026-04-28 19:04 15.39142 76.06948 27863 ft 501 kts 131°
2026-04-28 19:04 15.36962 76.09754 27865 ft 500 kts 131°
2026-04-28 19:04 15.34777 76.12565 27862 ft 500 kts 131°
2026-04-28 19:04 15.32595 76.15373 27863 ft 500 kts 131°
2026-04-28 19:05 15.30438 76.18146 27862 ft 500 kts 131°
2026-04-28 19:05 15.28257 76.20948 27861 ft 500 kts 131°
2026-04-28 19:05 15.26073 76.23754 27862 ft 500 kts 131°
2026-04-28 19:05 15.23884 76.26567 27862 ft 500 kts 131°
2026-04-28 19:06 15.21700 76.29370 27855 ft 500 kts 131°
2026-04-28 19:06 15.20257 76.31222 27862 ft 499 kts 130°
2026-04-28 19:06 15.17271 76.34876 27863 ft 494 kts 137°
2026-04-28 19:06 15.14658 76.37159 27869 ft 490 kts 147°
2026-04-28 19:07 15.11821 76.39112 27875 ft 489 kts 150°
2026-04-28 19:07 15.08948 76.40992 27600 ft 487 kts 150°
2026-04-28 19:07 15.06079 76.42856 27267 ft 486 kts 150°
2026-04-28 19:07 15.03227 76.44712 26928 ft 483 kts 150°
2026-04-28 19:08 15.00394 76.46561 26594 ft 480 kts 150°
2026-04-28 19:08 14.97575 76.48403 26260 ft 477 kts 150°
2026-04-28 19:08 14.94778 76.50232 25940 ft 474 kts 150°
2026-04-28 19:08 14.92002 76.52047 25617 ft 470 kts 150°
2026-04-28 19:09 14.89283 76.53826 25300 ft 466 kts 150°
2026-04-28 19:09 14.86516 76.55635 24979 ft 463 kts 150°
2026-04-28 19:09 14.83807 76.57406 24665 ft 460 kts 150°
2026-04-28 19:09 14.81145 76.59145 24364 ft 457 kts 149°
2026-04-28 19:10 14.78469 76.60894 24054 ft 453 kts 149°
2026-04-28 19:10 14.75810 76.62631 23749 ft 450 kts 149°
2026-04-28 19:10 14.73173 76.64354 23442 ft 447 kts 149°
2026-04-28 19:10 14.70545 76.66069 23078 ft 445 kts 149°
2026-04-28 19:11 14.67940 76.67769 22722 ft 442 kts 149°
2026-04-28 19:11 14.65341 76.69465 22367 ft 440 kts 149°
2026-04-28 19:11 14.62757 76.71150 22016 ft 438 kts 149°
2026-04-28 19:11 14.60186 76.72827 21671 ft 436 kts 149°
2026-04-28 19:12 14.57628 76.74495 21332 ft 434 kts 149°
2026-04-28 19:12 14.55082 76.76154 20994 ft 432 kts 149°
2026-04-28 19:12 14.52546 76.77806 20659 ft 429 kts 148°
2026-04-28 19:12 14.50060 76.79425 20330 ft 426 kts 148°
2026-04-28 19:13 14.47556 76.81056 20002 ft 425 kts 148°
2026-04-28 19:13 14.45063 76.82679 19680 ft 423 kts 148°
2026-04-28 19:13 14.42574 76.84299 19358 ft 421 kts 148°
2026-04-28 19:13 14.40099 76.85909 19045 ft 420 kts 148°
2026-04-28 19:14 14.37632 76.87514 18732 ft 419 kts 148°
2026-04-28 19:14 14.35173 76.89113 18422 ft 417 kts 148°
2026-04-28 19:14 14.32727 76.90703 18103 ft 414 kts 147°
2026-04-28 19:14 14.30292 76.92286 17744 ft 412 kts 147°
2026-04-28 19:15 14.27899 76.93841 17399 ft 411 kts 147°
2026-04-28 19:15 14.25482 76.95411 17050 ft 409 kts 147°
2026-04-28 19:15 14.23090 76.96965 16704 ft 406 kts 147°
2026-04-28 19:15 14.21480 76.98012 16468 ft 404 kts 146°
2026-04-28 19:16 14.18347 77.00053 16022 ft 400 kts 146°
2026-04-28 19:16 14.16002 77.01581 15687 ft 398 kts 146°
2026-04-28 19:16 14.13671 77.03099 15362 ft 395 kts 146°
2026-04-28 19:16 14.11353 77.04608 15035 ft 393 kts 146°
2026-04-28 19:17 14.09046 77.06110 14713 ft 390 kts 146°
2026-04-28 19:17 14.06756 77.07600 14392 ft 388 kts 146°
2026-04-28 19:17 14.04480 77.09081 14078 ft 386 kts 146°
2026-04-28 19:17 14.02217 77.10553 13764 ft 383 kts 146°
2026-04-28 19:18 13.99995 77.11999 13425 ft 381 kts 146°
2026-04-28 19:18 13.97760 77.13453 13073 ft 379 kts 146°
2026-04-28 19:18 13.95506 77.14919 12721 ft 377 kts 146°
2026-04-28 19:18 13.93320 77.16339 12379 ft 375 kts 146°
2026-04-28 19:19 13.91110 77.17776 12035 ft 374 kts 146°
2026-04-28 19:19 13.88915 77.19203 11702 ft 372 kts 146°
2026-04-28 19:19 13.86734 77.20620 11378 ft 369 kts 146°
2026-04-28 19:19 13.84573 77.22023 11047 ft 366 kts 146°
2026-04-28 19:20 13.82429 77.23414 10724 ft 363 kts 146°
2026-04-28 19:20 13.80285 77.24806 10399 ft 362 kts 146°
2026-04-28 19:20 13.78165 77.26182 10077 ft 356 kts 146°
2026-04-28 19:20 13.76153 77.27485 9747 ft 334 kts 146°
2026-04-28 19:21 13.74268 77.28705 9375 ft 306 kts 146°
2026-04-28 19:21 13.72522 77.29837 9058 ft 290 kts 146°
2026-04-28 19:21 13.70855 77.30918 8930 ft 274 kts 146°
2026-04-28 19:21 13.69328 77.31970 8919 ft 257 kts 139°
2026-04-28 19:22 13.68105 77.33261 8960 ft 250 kts 127°
2026-04-28 19:22 13.67416 77.34212 8943 ft 251 kts 123°
2026-04-28 19:22 13.66110 77.36207 8934 ft 252 kts 121°
2026-04-28 19:22 13.65159 77.37726 8935 ft 252 kts 121°
2026-04-28 19:23 13.64217 77.39250 8932 ft 252 kts 121°
2026-04-28 19:23 13.63278 77.40777 8934 ft 252 kts 121°
2026-04-28 19:23 13.62339 77.42308 8933 ft 252 kts 121°
2026-04-28 19:23 13.61405 77.43834 8933 ft 252 kts 121°
2026-04-28 19:24 13.60469 77.45365 8948 ft 252 kts 121°
2026-04-28 19:24 13.59535 77.46893 8949 ft 252 kts 121°
2026-04-28 19:24 13.58601 77.48419 8949 ft 252 kts 121°
2026-04-28 19:24 13.57665 77.49949 8931 ft 252 kts 121°
2026-04-28 19:25 13.56741 77.51461 8945 ft 252 kts 121°
2026-04-28 19:25 13.55805 77.52989 8948 ft 252 kts 121°
2026-04-28 19:25 13.54871 77.54516 8948 ft 252 kts 121°
2026-04-28 19:25 13.53937 77.56043 8947 ft 252 kts 121°
2026-04-28 19:26 13.53003 77.57570 8948 ft 252 kts 121°
2026-04-28 19:26 13.52069 77.59094 8947 ft 252 kts 121°
2026-04-28 19:26 13.51132 77.60624 8942 ft 253 kts 121°
2026-04-28 19:26 13.50195 77.62155 8949 ft 253 kts 121°
2026-04-28 19:27 13.49269 77.63665 8942 ft 253 kts 121°
2026-04-28 19:27 13.48330 77.65198 8952 ft 253 kts 121°
2026-04-28 19:27 13.47391 77.66731 8956 ft 253 kts 121°
2026-04-28 19:27 13.46456 77.68256 8792 ft 252 kts 121°
2026-04-28 19:28 13.45522 77.69780 8489 ft 251 kts 121°
2026-04-28 19:28 13.44591 77.71299 8172 ft 251 kts 122°
2026-04-28 19:28 13.43661 77.72816 7866 ft 250 kts 122°
2026-04-28 19:28 13.42735 77.74326 7560 ft 249 kts 122°
2026-04-28 19:29 13.41813 77.75830 7249 ft 248 kts 122°
2026-04-28 19:29 13.41203 77.76824 7050 ft 248 kts 122°
2026-04-28 19:29 13.39988 77.78804 6658 ft 246 kts 122°
2026-04-28 19:29 13.39075 77.80292 6361 ft 246 kts 123°
2026-04-28 19:30 13.38175 77.81759 6052 ft 237 kts 123°
2026-04-28 19:30 13.37325 77.83145 5958 ft 222 kts 123°
2026-04-28 19:30 13.36506 77.84479 5953 ft 220 kts 123°
2026-04-28 19:30 13.35688 77.85811 5952 ft 220 kts 123°
2026-04-28 19:31 13.34868 77.87144 5974 ft 220 kts 123°
2026-04-28 19:31 13.34064 77.88450 5967 ft 209 kts 123°
2026-04-28 19:31 13.33306 77.89682 5974 ft 201 kts 123°
2026-04-28 19:31 13.32566 77.90886 5983 ft 199 kts 123°
2026-04-28 19:32 13.31826 77.92089 5969 ft 199 kts 123°
2026-04-28 19:32 13.31088 77.93289 5970 ft 198 kts 123°
2026-04-28 19:32 13.30352 77.94486 5985 ft 198 kts 123°
2026-04-28 19:32 13.29614 77.95686 5978 ft 198 kts 123°
2026-04-28 19:33 13.28887 77.96871 5974 ft 200 kts 123°
2026-04-28 19:33 13.27932 77.97880 5959 ft 199 kts 152°
2026-04-28 19:33 13.26594 77.98121 5966 ft 198 kts 189°
2026-04-28 19:33 13.25389 77.97485 5965 ft 199 kts 224°
2026-04-28 19:34 13.24557 77.96343 5975 ft 200 kts 237°
2026-04-28 19:34 13.24081 77.95532 5974 ft 201 kts 238°
2026-04-28 19:34 13.23384 77.94285 5985 ft 202 kts 239°
2026-04-28 19:34 13.22692 77.93027 5982 ft 202 kts 239°
2026-04-28 19:35 13.22001 77.91769 5988 ft 202 kts 239°
2026-04-28 19:35 13.21306 77.90504 5991 ft 208 kts 239°
2026-04-28 19:35 13.20769 77.89142 5967 ft 202 kts 256°
2026-04-28 19:35 13.20648 77.87760 5820 ft 189 kts 268°
2026-04-28 19:36 13.20663 77.86440 5572 ft 182 kts 268°
2026-04-28 19:36 13.20668 77.85168 5323 ft 175 kts 267°
2026-04-28 19:36 13.20667 77.83942 5130 ft 168 kts 267°
2026-04-28 19:36 13.20670 77.82746 4911 ft 166 kts 267°
2026-04-28 19:37 13.20674 77.81585 4698 ft 161 kts 267°
2026-04-28 19:37 13.20676 77.80830 4575 ft 159 kts 267°
2026-04-28 19:37 13.20681 77.79334 4310 ft 158 kts 268°
2026-04-28 19:37 13.20685 77.78214 4111 ft 157 kts 268°
2026-04-28 19:38 13.20689 77.77098 3913 ft 156 kts 268°
2026-04-28 19:38 13.20692 77.75994 3719 ft 154 kts 269°
2026-04-28 19:38 13.20696 77.74900 3513 ft 152 kts 270°
2026-04-28 19:38 13.20698 77.73819 3271 ft 150 kts 270°
2026-04-28 19:39 13.20698 77.72746 3090 ft 150 kts 270°
2026-04-28 19:39 13.20692 77.71686 2948 ft 144 kts 271°
2026-04-28 19:39 13.20703 77.70782 2949 ft 110 kts 271°
2026-04-28 19:39 13.20705 77.70214 2973 ft 44 kts 264°
2026-04-28 19:40 13.20618 77.69976 2978 ft 34 kts 236°
2026-04-28 19:40 13.20536 77.69763 2983 ft 21 kts 268°
2026-04-28 19:40 13.20537 77.69618 2986 ft 20 kts 270°
2026-04-28 19:40 13.20538 77.69476 2988 ft 20 kts 270°
2026-04-28 19:41 13.20540 77.69337 2992 ft 19 kts 271°
2026-04-28 19:41 13.20542 77.69203 2995 ft 18 kts 271°
2026-04-28 19:41 13.20544 77.69073 2998 ft 18 kts 271°
2026-04-28 19:41 13.20546 77.68947 3000 ft 17 kts 268°
2026-04-28 19:42 13.20544 77.68826 3003 ft 17 kts 269°
2026-04-28 19:42 13.20544 77.68698 3010 ft 19 kts 270°
2026-04-28 19:42 13.20588 77.68622 3009 ft 13 kts 346°
2026-04-28 19:42 13.20648 77.68619 3009 ft 13 kts
2026-04-28 19:43 13.20719 77.68679 3007 ft 18 kts 90°
2026-04-28 19:43 13.20716 77.68877 3003 ft 31 kts 91°
2026-04-28 19:43 13.20713 77.69106 2998 ft 33 kts 90°
2026-04-28 19:43 13.20654 77.69207 2995 ft 13 kts 172°
2026-04-28 19:44 13.20560 77.69214 2995 ft 14 kts 144°
2026-04-28 19:44 13.20541 77.69346 2991 ft 25 kts 91°
2026-04-28 19:44 13.20538 77.69533 2987 ft 28 kts 90°
2026-04-28 19:44 13.20536 77.69745 2983 ft 37 kts 90°
2026-04-28 19:45 13.20535 77.70069 2976 ft 48 kts 91°
2026-04-28 19:45 13.20531 77.70370 2969 ft 32 kts 90°
2026-04-28 19:45 13.20530 77.70608 2956 ft 34 kts 90°
2026-04-28 19:45 13.20529 77.70835 2945 ft 17 kts 92°
2026-04-28 19:46 13.20479 77.70883 2955 ft 11 kts 184°
2026-04-28 19:46 13.20421 77.70848 2945 ft 10 kts 268°
2026-04-28 19:46 13.20425 77.70738 2960 ft 21 kts 271°
2026-04-28 19:46 13.20427 77.70605 2964 ft 7 kts 271°
2026-04-28 19:47 13.20396 77.70580 2964 ft 12 kts 179°
2026-04-28 19:47 13.20291 77.70608 2964 ft 17 kts 144°
2026-04-28 19:47 13.20264 77.70693 2954 ft 1 kts 105°
2026-04-28 19:47 13.20241 77.70703 2951 ft 6 kts 172°
2026-04-28 19:48 13.20212 77.70701 2953 ft 1 kts 220°
2026-04-28 19:48 13.20201 77.70689 2949 ft 1 kts 197°
2026-04-28 19:48 13.20184 77.70688 2952 ft 3 kts 181°
2026-04-28 19:48 13.20165 77.70688 2958 ft 0 kts 181°